Location: Mentone
(34.5413°N, 85.5351°W)
Time: 16:53:49
(UTC-05:00)

Cosmos 2026 Rocket - Visible Passes

Search period start: 18 August 2017 00:00
Search period end: 28 August 2017 00:00
Orbit: 940 x 1000 km, 82.9° (Epoch: 17 August)

Date Brightness Start Highest point End Pass type
(mag) Time Alt. Az. Time Alt. Az. Time Alt. Az.
18 Aug 6.4 21:25:33 10° WSW 21:30:17 22° WNW 21:35:04 10° NNW visible
19 Aug 4.1 20:02:15 10° S 20:08:34 88° E 20:14:59 10° N visible
19 Aug 7.0 21:52:47 10° W 21:54:39 11° WNW 21:56:31 10° NW visible
20 Aug 5.0 20:26:25 10° SSW 20:32:31 51° W 20:38:43 10° N visible
21 Aug 7.4 05:42:55 10° NE 05:46:02 14° ENE 05:49:07 10° E visible
21 Aug 6.1 20:51:19 10° SW 20:56:37 28° WNW 21:02:01 10° NNW visible
22 Aug 6.9 21:17:24 10° WSW 21:20:55 15° WNW 21:24:28 10° NW visible
23 Aug 4.6 19:52:41 10° SSW 19:58:58 66° W 20:05:20 10° N visible
24 Aug 7.7 05:11:44 10° ENE 05:12:16 10° ENE 05:12:49 10° ENE visible
24 Aug 5.8 20:17:16 10° SW 20:23:01 36° WNW 20:28:49 10° NNW visible
25 Aug 7.0 05:32:10 10° NNE 05:36:40 20° ENE 05:41:05 10° ESE visible
25 Aug 6.8 20:42:45 10° WSW 20:47:13 20° WNW 20:51:44 10° NNW visible
27 Aug 5.3 19:43:22 10° SSW 19:49:26 46° W 19:55:33 10° N visible
